STARLINK-2590, 48397

Orbit data source: Space-Track

STARLINK-2590, 48397 is a payload satellite owned by SpaceX/Seattle (US) in LEO that was launched on Tue, 04 May 2021 UTC via an FALCON 9 launch vehicle from the Air Force Eastern Test Range (AFETR). Payload-class satellites include a variety of spacecraft equipped with specific instruments for various scientific and technological missions. These include communications satellites like Starlink; space stations such as the ISS; scientific satellites like the Hubble; Earth observation satellites from companies like Planet Labs, Umbra, and HawkEye 360; GPS; miniature CubeSats for education and research; and military/defense satellites.

Loading next visibility...
Identifier
48397, 2021-038AW
Orbit
LEO
Country
Flag of USUS
Related business
Manufacturer
SpaceX/Seattle
Mission
Operational Commercial Communications
Bus & Motor
STARLINK, Unknown motor
Mass
260 kg wet, ~248 kg dry
Launch date (UTC)
2021-05-04 (5 years ago)
Launch vehicle
FALCON 9
Launch site
Air Force Eastern Test Range (AFETR)
Object type
Payload
Rocket body
Debris
Shape & HBR
Box + 1 Pan, 10.1 m
Radar Cross Section
13.562 m², Large (>1 m²)

Expand to show TLE details & history
Last TLE update: 2 days ago

TLE from 2 days ago
0 STARLINK-2590
1 48397U 21038AW  26171.44238506  .00000072  00000-0  14088-4 0  9998
2 48397  53.1582 214.6123 0000840  77.5148 282.5948 15.31698508284402
Epoch: 2026-06-20T10:37Z
TLE epoch observation values (Epoch: 2026-06-20T10:37:02.069Z)
Latitude
0.00005°
Longitude
146.69677°
Altitude
471.519 km
Speed
7.632 km/s
True Right ascension
14h 18m 26s
True Declination
0° 00' 00"
Sunlit
Object was in full shadow at epoch
Visualization orbit readout
Latitude
Unknown
Longitude
Unknown
Altitude
Unknown
Speed
Unknown
Apparent Right ascension
Unknown
Apparent Declination
Unknown
Sunlit
N/A
Visualization observer readout
Local Sidereal Time
21:24:38
Azimuth
Unknown
Elevation
Unknown
Doppler factor
Unknown
Orbital elements
Apogee altitude
471.577 km
Perigee altitude
470.426 km
Semi-major axis
6,849.138 km
Eccentricity
0.00008
Inclination
53.1582°
RAAN
214.6123°
Arg. of periapsis
77.5148°
True anomaly
282.58541°
Mean anomaly
282.5948°
Eccentric anomaly
282.5901°
Mean motion
3.82903 °/min
Orbital period
94.02 mins
BSTAR
0.000014088
Loading maneuver chart data...
Computing Atmospheric mass density...

Documentation

Showing up to 5 results
|